KD8ZVC Weather Reports


Display with metric or nautical units.
time (UTC)temp
F
wind
direction
speed
MPH
gust
MPH
rain 1hr
in
rain 24hr
in
rain mn
in
humidity
%
barometer
mb
20220520073006 58 124 0.0 0.0 0.00 0.00 0.00 21 1001.6
20220520072505 57 123 0.0 0.0 0.00 0.00 0.00 22 1001.6
20220520072005 57 123 0.0 0.0 0.00 0.00 0.00 24 1001.7
20220520071505 57 105 0.0 0.0 0.00 0.00 0.00 24 1001.8
20220520071005 57 105 0.0 0.0 0.00 0.00 0.00 24 1001.9
20220520070506 57 105 0.0 0.0 0.00 0.00 0.00 25 1002.0
20220520070009 57 105 0.0 0.0 0.00 0.00 0.00 24 1002.0
20220520065506 57 105 0.0 0.0 0.00 0.00 0.00 22 1002.1
20220520065005 58 105 0.0 0.0 0.00 0.00 0.00 23 1002.1
20220520064506 58 105 0.0 0.0 0.00 0.00 0.00 22 1002.2
20220520064005 58 105 0.0 0.0 0.00 0.00 0.00 21 1002.1
20220520063509 58 105 0.0 0.0 0.00 0.00 0.00 21 1002.2
20220520063005 59 105 0.0 0.0 0.00 0.00 0.00 21 1002.1
20220520062505 59 105 0.0 0.0 0.00 0.00 0.00 21 1002.2
20220520062005 60 105 0.0 0.0 0.00 0.00 0.00 20 1002.3
20220520061508 60 105 0.0 0.0 0.00 0.00 0.00 19 1002.1
20220520061005 60 105 0.0 0.0 0.00 0.00 0.00 19 1002.3
20220520060505 60 105 0.0 0.0 0.00 0.00 0.00 18 1002.5
20220520060008 60 105 0.0 0.0 0.00 0.00 0.00 19 1002.6
20220520055505 60 105 0.0 0.0 0.00 0.00 0.00 18 1002.4
20220520055009 60 105 0.0 0.0 0.00 0.00 0.00 19 1002.6
20220520054506 60 105 0.0 0.0 0.00 0.00 0.00 19 1002.7
20220520054005 60 105 0.0 0.0 0.00 0.00 0.00 20 1002.6
20220520053508 61 105 0.0 0.0 0.00 0.00 0.00 19 1002.7
20220520053005 61 105 0.0 0.0 0.00 0.00 0.00 19 1002.9
20220520052505 61 105 0.0 0.0 0.00 0.00 0.00 19 1002.9
20220520052005 62 105 0.0 0.0 0.00 0.00 0.00 19 1002.7
20220520051507 62 105 0.0 0.0 0.00 0.00 0.00 18 1002.7
20220520051006 62 105 0.0 0.0 0.00 0.00 0.00 17 1002.7
20220520050507 62 105 0.0 0.0 0.00 0.00 0.00 17 1002.7
20220520050008 62 105 0.0 0.0 0.00 0.00 0.00 18 1002.9
20220520045505 62 105 0.0 0.0 0.00 0.00 0.00 17 1003.0
20220520045005 62 105 0.0 0.0 0.00 0.00 0.00 18 1002.9
20220520044505 62 105 0.0 0.0 0.00 0.00 0.00 18 1003.0
20220520044006 62 105 0.0 0.0 0.00 0.00 0.00 18 1002.9
20220520043505 62 105 0.0 0.0 0.00 0.00 0.00 19 1002.9
20220520043008 62 105 0.0 0.0 0.00 0.00 0.00 19 1002.9
20220520042505 62 105 0.0 0.0 0.00 0.00 0.00 19 1002.9
20220520042010 62 105 0.0 0.0 0.00 0.00 0.00 20 1002.8
20220520041505 63 105 0.0 0.0 0.00 0.00 0.00 20 1002.8
20220520041006 63 105 0.0 0.0 0.00 0.00 0.00 21 1002.7
20220520040505 64 105 0.0 0.0 0.00 0.00 0.00 23 1002.8
20220520040011 64 105 0.0 1.0 0.00 0.00 0.00 19 1002.9
20220520035506 65 105 0.0 1.0 0.00 0.00 0.00 21 1002.9
20220520035006 65 206 0.0 1.0 0.00 0.00 0.00 20 1002.9
20220520034511 65 206 0.0 1.0 0.00 0.00 0.00 20 1003.0
20220520034006 65 120 0.0 1.0 0.00 0.00 0.00 22 1003.0
20220520033505 65 276 0.0 1.0 0.00 0.00 0.00 18 1003.1
20220520033007 65 94 0.0 1.0 0.00 0.00 0.00 22 1003.1
20220520032509 65 157 0.0 0.0 0.00 0.00 0.00 22 1003.1
20220520032005 66 157 0.0 0.0 0.00 0.00 0.00 22 1003.1
20220520031505 66 157 0.0 0.0 0.00 0.00 0.00 19 1003.2
20220520031008 67 157 0.0 0.0 0.00 0.00 0.00 21 1003.2
20220520030509 67 157 0.0 0.0 0.00 0.00 0.00 20 1003.2
20220520030009 68 157 0.0 0.0 0.00 0.00 0.00 20 1003.2
20220520025505 68 157 0.0 0.0 0.00 0.00 0.00 21 1003.3
20220520025012 69 157 0.0 0.0 0.00 0.00 0.00 20 1003.4
20220520024505 70 157 0.0 0.0 0.00 0.00 0.00 17 1003.3
20220520024005 70 240 0.0 0.0 0.00 0.00 0.00 19 1003.3
20220520023506 71 240 0.0 1.0 0.00 0.00 0.00 18 1003.4
20220520023006 71 203 0.0 2.0 0.00 0.00 0.00 14 1003.3
20220520022504 72 125 0.0 2.0 0.00 0.00 0.00 15 1003.5
20220520022009 73 227 0.0 1.0 0.00 0.00 0.00 16 1003.3
20220520021509 73 226 0.0 1.0 0.00 0.00 0.00 15 1003.3
20220520021008 73 226 1.0 3.0 0.00 0.00 0.00 14 1003.4
20220520020508 74 206 0.0 3.0 0.00 0.00 0.00 13 1003.3
20220520020008 74 231 0.0 2.0 0.00 0.00 0.00 13 1003.5
20220520015505 74 268 0.0 2.0 0.00 0.00 0.00 13 1003.6
20220520015005 74 241 1.0 2.0 0.00 0.00 0.00 14 1003.5
20220520014505 74 226 1.0 4.0 0.00 0.00 0.00 12 1003.5
20220520014006 74 215 1.0 4.0 0.00 0.00 0.00 12 1003.6
20220520013505 74 232 1.0 3.0 0.00 0.00 0.00 12 1003.6
20220520013006 74 233 1.0 3.0 0.00 0.00 0.00 12 1003.5
20220520012505 75 245 1.0 3.0 0.00 0.00 0.00 11 1003.6
20220520012008 75 220 1.0 4.0 0.00 0.00 0.00 11 1003.5
20220520011505 75 74 1.0 5.0 0.00 0.00 0.00 10 1003.6
20220520011006 75 184 1.0 5.0 0.00 0.00 0.00 11 1003.6
20220520010506 76 237 1.0 4.0 0.00 0.00 0.00 10 1003.6
20220520010007 76 248 1.0 4.0 0.00 0.00 0.00 9 1003.6
20220520005508 76 111 1.0 4.0 0.00 0.00 0.00 11 1003.8
20220520005005 76 224 1.0 4.0 0.00 0.00 0.00 9 1003.7
20220520004509 77 255 1.0 5.0 0.00 0.00 0.00 10 1003.7
20220520004005 77 229 1.0 4.0 0.00 0.00 0.00 10 1003.8
20220520003506 77 229 1.0 4.0 0.00 0.00 0.00 10 1003.7
20220520003012 77 213 1.0 4.0 0.00 0.00 0.00 10 1003.7
20220520002509 78 211 1.0 4.0 0.00 0.00 0.00 12 1003.9
20220520002005 78 344 1.0 4.0 0.00 0.00 0.00 11 1003.9
20220520001505 78 221 2.0 9.0 0.00 0.00 0.00 10 1004.0
20220520001005 78 226 2.0 9.0 0.00 0.00 0.00 10 1004.0
20220520000506 78 122 1.0 4.0 0.00 0.00 0.00 11 1004.0
20220520000008 79 255 1.0 5.0 0.00 0.00 0.00 11 1004.0
20220519235505 79 229 1.0 5.0 0.00 0.00 0.00 11 1004.1
20220519235006 79 186 1.0 3.0 0.00 0.00 0.00 11 1004.1
20220519234507 80 295 1.0 3.0 0.00 0.00 0.00 10 1004.1
20220519234005 80 266 1.0 3.0 0.00 0.00 0.00 11 1004.3
20220519233505 80 227 1.0 4.0 0.00 0.00 0.00 10 1004.3
20220519233007 80 238 2.0 7.0 0.00 0.00 0.00 8 1004.4
20220519232506 79 215 2.0 7.0 0.00 0.00 0.00 8 1004.6
20220519232006 79 187 2.0 7.0 0.00 0.00 0.00 10 1004.7
20220519231505 80 114 2.0 6.0 0.00 0.00 0.00 11 1004.8
20220519231006 80 213 2.0 5.0 0.00 0.00 0.00 11 1004.8
20220519230506 80 265 1.0 4.0 0.00 0.00 0.00 9 1004.8
20220519230008 81 252 1.0 5.0 0.00 0.00 0.00 12 1004.9
20220519225505 80 319 1.0 5.0 0.00 0.00 0.00 10 1005.0
20220519225006 80 217 2.0 5.0 0.00 0.00 0.00 12 1005.2
20220519224506 79 229 2.0 5.0 0.00 0.00 0.00 12 1005.2
20220519224005 80 231 2.0 5.0 0.00 0.00 0.00 11 1005.2
20220519223506 80 268 2.0 4.0 0.00 0.00 0.00 11 1005.2
20220519223006 80 220 2.0 4.0 0.00 0.00 0.00 10 1005.2
20220519222505 80 311 1.0 5.0 0.00 0.00 0.00 11 1005.3
20220519222006 80 96 1.0 5.0 0.00 0.00 0.00 12 1005.3
20220519221505 80 280 1.0 4.0 0.00 0.00 0.00 13 1005.3
20220519221006 79 255 2.0 5.0 0.00 0.00 0.00 13 1005.3
20220519220506 79 230 2.0 6.0 0.00 0.00 0.00 11 1005.2
20220519220007 79 226 1.0 6.0 0.00 0.00 0.00 14 1005.5
20220519215505 79 239 1.0 5.0 0.00 0.00 0.00 18 1005.6
20220519215005 78 229 1.0 5.0 0.00 0.00 0.00 20 1005.7
20220519214505 78 132 1.0 5.0 0.00 0.00 0.00 22 1005.8
20220519214006 78 137 1.0 4.0 0.00 0.00 0.00 26 1005.8
20220519213508 78 253 1.0 3.0 0.00 0.00 0.00 30 1005.9
20220519213006 78 235 1.0 5.0 0.00 0.00 0.00 30 1006.0
20220519212509 78 181 1.0 5.0 0.00 0.00 0.00 30 1006.1
20220519212006 78 137 1.0 6.0 0.00 0.00 0.00 30 1006.2
20220519211506 78 233 1.0 3.0 0.00 0.00 0.00 32 1006.2
20220519211005 78 233 2.0 4.0 0.00 0.00 0.00 31 1006.2
20220519210513 79 228 2.0 5.0 0.00 0.00 0.00 31 1006.3
20220519210008 79 280 2.0 5.0 0.00 0.00 0.00 30 1006.3
20220519205504 79 226 1.0 4.0 0.00 0.00 0.00 30 1006.5
20220519205004 80 258 1.0 3.0 0.00 0.00 0.00 30 1006.6
20220519204504 79 275 1.0 3.0 0.00 0.00 0.00 31 1006.5
20220519204006 79 349 1.0 4.0 0.00 0.00 0.00 31 1006.6
20220519203504 79 260 1.0 4.0 0.00 0.00 0.00 31 1006.6
20220519203018 79 134 1.0 4.0 0.00 0.00 0.00 30 1006.8
20220519202504 79 233 1.0 4.0 0.00 0.00 0.00 30 1006.8
20220519202004 79 101 1.0 4.0 0.00 0.00 0.00 30 1006.8
20220519201505 79 193 1.0 4.0 0.00 0.00 0.00 31 1006.8
20220519201006 80 259 1.0 4.0 0.00 0.00 0.00 31 1007.0
20220519200505 79 123 1.0 4.0 0.00 0.00 0.00 32 1007.0
20220519200007 79 226 1.0 3.0 0.00 0.00 0.00 31 1007.0
20220519195504 79 148 1.0 5.0 0.00 0.00 0.00 30 1007.1
20220519195005 79 266 1.0 5.0 0.00 0.00 0.00 30 1007.1
20220519194504 79 205 1.0 4.0 0.00 0.00 0.00 30 1007.2
20220519194004 79 124 1.0 4.0 0.00 0.00 0.00 30 1007.1
20220519193504 79 160 1.0 4.0 0.00 0.00 0.00 29 1007.3
20220519193007 79 193 1.0 3.0 0.00 0.00 0.00 31 1007.2
20220519192505 80 261 1.0 3.0 0.00 0.00 0.00 30 1007.3
20220519192004 79 158 1.0 4.0 0.00 0.00 0.00 30 1007.3
20220519191505 79 139 1.0 4.0 0.00 0.00 0.00 33 1007.2
20220519191004 78 216 1.0 3.0 0.00 0.00 0.00 32 1007.1
20220519190504 78 293 1.0 3.0 0.00 0.00 0.00 32 1007.3
20220519190009 79 239 1.0 3.0 0.00 0.00 0.00 30 1007.2
20220519185504 78 141 0.0 4.0 0.00 0.00 0.00 31 1007.2
20220519185004 78 229 1.0 4.0 0.00 0.00 0.00 33 1007.5
20220519184505 78 273 1.0 3.0 0.00 0.00 0.00 34 1007.4
20220519184005 78 233 1.0 3.0 0.00 0.00 0.00 34 1007.3
20220519183504 77 238 1.0 3.0 0.00 0.00 0.00 35 1007.3
20220519183005 77 267 0.0 3.0 0.00 0.00 0.00 36 1007.3
20220519182504 77 287 1.0 3.0 0.00 0.00 0.00 39 1007.4
20220519182004 77 149 1.0 3.0 0.00 0.00 0.00 38 1007.4
20220519181504 77 247 1.0 3.0 0.00 0.00 0.00 38 1007.5
20220519181004 77 237 1.0 3.0 0.00 0.00 0.00 37 1007.4
20220519180506 76 221 0.0 2.0 0.00 0.00 0.00 40 1007.4
20220519180011 76 147 0.0 4.0 0.00 0.00 0.00 40 1007.3
20220519175504 75 203 0.0 4.0 0.00 0.00 0.00 40 1007.5
20220519175004 75 246 1.0 2.0 0.00 0.00 0.00 41 1007.3
20220519174505 75 271 0.0 2.0 0.00 0.00 0.00 40 1007.4
20220519174005 75 229 0.0 2.0 0.00 0.00 0.00 40 1007.5
20220519173504 74 136 0.0 3.0 0.00 0.00 0.00 42 1007.4
20220519173005 74 132 0.0 4.0 0.00 0.00 0.00 42 1007.5
20220519172504 74 220 0.0 4.0 0.00 0.00 0.00 42 1007.6
20220519172004 74 229 0.0 2.0 0.00 0.00 0.00 42 1007.6
20220519171504 74 150 0.0 2.0 0.00 0.00 0.00 42 1007.6
20220519171003 74 139 0.0 2.0 0.00 0.00 0.00 41 1007.6
20220519170504 73 120 0.0 1.0 0.00 0.00 0.00 41 1007.6
20220519170006 73 266 0.0 2.0 0.00 0.00 0.00 41 1007.6
20220519165504 72 223 0.0 2.0 0.00 0.00 0.00 41 1007.7
20220519165005 71 200 0.0 2.0 0.00 0.00 0.00 42 1007.7
20220519164504 71 248 0.0 1.0 0.00 0.00 0.00 44 1007.6
20220519164004 70 250 0.0 1.0 0.00 0.00 0.00 45 1007.7
20220519163504 69 250 0.0 1.0 0.00 0.00 0.00 46 1007.6
20220519163005 68 134 0.0 1.0 0.00 0.00 0.00 50 1007.6
20220519162523 68 214 0.0 0.0 0.00 0.00 0.00 52 1007.7
20220519162004 67 214 0.0 0.0 0.00 0.00 0.00 54 1007.8
20220519161507 67 214 0.0 1.0 0.00 0.00 0.00 52 1007.7
20220519161004 66 217 0.0 1.0 0.00 0.00 0.00 55 1007.7
20220519160505 66 217 0.0 0.0 0.00 0.00 0.00 56 1007.8
20220519160006 66 224 0.0 0.0 0.00 0.00 0.00 56 1008.0
20220519155504 66 224 0.0 0.0 0.00 0.00 0.00 55 1008.0
20220519155004 65 224 0.0 0.0 0.00 0.00 0.00 56 1007.9
20220519154504 65 224 0.0 0.0 0.00 0.00 0.00 58 1008.0
20220519154004 65 224 0.0 0.0 0.00 0.00 0.00 55 1007.9
20220519153504 65 224 0.0 0.0 0.00 0.00 0.00 54 1007.8
20220519153006 65 224 0.0 0.0 0.00 0.00 0.00 52 1007.8
20220519152504 65 224 0.0 0.0 0.00 0.00 0.00 57 1007.8
20220519152004 65 224 0.0 0.0 0.00 0.00 0.00 55 1007.8
20220519151504 65 224 0.0 0.0 0.00 0.00 0.00 54 1007.8
20220519151004 65 224 0.0 0.0 0.00 0.00 0.00 52 1007.8
20220519150504 64 224 0.0 0.0 0.00 0.00 0.00 49 1007.8
20220519150007 64 224 0.0 0.0 0.00 0.00 0.00 48 1007.7
20220519145504 64 224 0.0 0.0 0.00 0.00 0.00 51 1007.8
20220519145004 64 224 0.0 0.0 0.00 0.00 0.00 52 1007.7
20220519144506 64 224 0.0 0.0 0.00 0.00 0.00 55 1007.6
20220519144004 63 224 0.0 0.0 0.00 0.00 0.00 54 1007.7
20220519143504 63 224 0.0 0.0 0.00 0.00 0.00 52 1007.6
20220519143006 63 224 0.0 0.0 0.00 0.00 0.00 55 1007.6
20220519142504 63 224 0.0 0.0 0.00 0.00 0.00 54 1007.6
20220519142005 63 224 0.0 0.0 0.00 0.00 0.00 55 1007.6
20220519141506 63 224 0.0 0.0 0.00 0.00 0.00 55 1007.5
20220519141004 63 224 0.0 0.0 0.00 0.00 0.00 52 1007.6
20220519140506 64 224 0.0 0.0 0.00 0.00 0.00 47 1007.7
20220519140009 64 224 0.0 0.0 0.00 0.00 0.00 46 1007.6
20220519135504 64 224 0.0 0.0 0.00 0.00 0.00 46 1007.6
20220519135004 64 223 0.0 0.0 0.00 0.00 0.00 46 1007.6
20220519134504 64 224 0.0 0.0 0.00 0.00 0.00 44 1007.6
20220519134004 64 224 0.0 0.0 0.00 0.00 0.00 44 1007.6
20220519133503 64 224 0.0 0.0 0.00 0.00 0.00 43 1007.6
20220519133008 65 224 0.0 0.0 0.00 0.00 0.00 43 1007.6
20220519132507 65 224 0.0 0.0 0.00 0.00 0.00 43 1007.6
20220519132004 65 224 0.0 0.0 0.00 0.00 0.00 43 1007.5
20220519131504 65 224 0.0 0.0 0.00 0.00 0.00 42 1007.5
20220519131004 64 224 0.0 0.0 0.00 0.00 0.00 42 1007.5
20220519130505 65 223 0.0 0.0 0.00 0.00 0.00 42 1007.4
20220519130006 65 224 0.0 0.0 0.00 0.00 0.00 42 1007.4
20220519125503 65 224 0.0 0.0 0.00 0.00 0.00 42 1007.5
20220519125005 65 224 0.0 0.0 0.00 0.00 0.00 42 1007.4
20220519124509 65 224 0.0 0.0 0.00 0.00 0.00 43 1007.5
20220519124004 65 224 0.0 0.0 0.00 0.00 0.00 43 1007.5
20220519123504 65 224 0.0 0.0 0.00 0.00 0.00 43 1007.5
20220519123005 65 224 0.0 0.0 0.00 0.00 0.00 43 1007.5
20220519122503 66 224 0.0 0.0 0.00 0.00 0.00 42 1007.6
20220519122004 66 224 0.0 0.0 0.00 0.00 0.00 42 1007.6
20220519121504 66 224 0.0 0.0 0.00 0.00 0.00 41 1007.6
20220519121004 66 224 0.0 0.0 0.00 0.00 0.00 41 1007.7
20220519120505 66 224 0.0 0.0 0.00 0.00 0.00 41 1007.7
20220519120007 66 224 0.0 0.0 0.00 0.00 0.00 41 1007.7
20220519115504 66 224 0.0 0.0 0.00 0.00 0.00 41 1007.6
20220519115005 66 224 0.0 0.0 0.00 0.00 0.00 41 1007.8
20220519114505 66 224 0.0 0.0 0.00 0.00 0.00 42 1007.8
20220519114004 66 224 0.0 0.0 0.00 0.00 0.00 42 1007.9
20220519113504 66 224 0.0 0.0 0.00 0.00 0.00 42 1008.0
20220519113007 66 224 0.0 0.0 0.00 0.00 0.00 41 1008.0
20220519112506 66 224 0.0 0.0 0.00 0.00 0.00 42 1008.0
20220519112004 66 224 0.0 0.0 0.00 0.00 0.00 42 1008.0
20220519111505 66 224 0.0 0.0 0.00 0.00 0.00 42 1008.2
20220519111004 66 224 0.0 0.0 0.00 0.00 0.00 42 1008.1
20220519110504 66 224 0.0 0.0 0.00 0.00 0.00 42 1008.1
20220519110010 65 224 0.0 0.0 0.00 0.00 0.00 42 1008.2
20220519105503 65 224 0.0 1.0 0.00 0.00 0.00 42 1008.3
20220519105004 65 224 0.0 1.0 0.00 0.00 0.00 42 1008.2
20220519104505 65 224 0.0 0.0 0.00 0.00 0.00 42 1008.3
20220519104003 65 224 0.0 0.0 0.00 0.00 0.00 42 1008.4
20220519103504 65 224 0.0 0.0 0.00 0.00 0.00 42 1008.5
20220519103005 64 224 0.0 0.0 0.00 0.00 0.00 42 1008.5
20220519102505 64 229 0.0 0.0 0.00 0.00 0.00 43 1008.4
20220519102004 64 230 0.0 0.0 0.00 0.00 0.00 43 1008.5
20220519101505 65 229 0.0 0.0 0.00 0.00 0.00 42 1008.5
20220519101004 65 229 0.0 0.0 0.00 0.00 0.00 41 1008.5
20220519100504 65 229 0.0 0.0 0.00 0.00 0.00 39 1008.6
20220519100006 66 229 0.0 0.0 0.00 0.00 0.00 39 1008.6
20220519095505 65 229 0.0 0.0 0.00 0.00 0.00 39 1008.8
20220519095004 65 229 0.0 0.0 0.00 0.00 0.00 39 1008.7
20220519094504 65 229 0.0 0.0 0.00 0.00 0.00 39 1008.9
20220519094004 66 229 0.0 0.0 0.00 0.00 0.00 39 1008.8
20220519093507 66 229 0.0 0.0 0.00 0.00 0.00 41 1009.0
20220519093005 66 229 0.0 0.0 0.00 0.00 0.00 41 1008.9
20220519092504 67 229 0.0 0.0 0.00 0.00 0.00 40 1009.1
20220519092004 67 229 0.0 0.0 0.00 0.00 0.00 40 1009.0
20220519091505 67 229 0.0 0.0 0.00 0.00 0.00 39 1009.1
20220519091004 67 229 0.0 0.0 0.00 0.00 0.00 39 1009.1
20220519090504 67 229 0.0 0.0 0.00 0.00 0.00 38 1009.0
20220519090005 68 229 0.0 0.0 0.00 0.00 0.00 39 1009.1
20220519085503 67 229 0.0 0.0 0.00 0.00 0.00 37 1009.1
20220519085003 67 230 0.0 0.0 0.00 0.00 0.00 38 1009.1
20220519084504 67 230 0.0 0.0 0.00 0.00 0.00 38 1009.2
20220519084004 67 230 0.0 0.0 0.00 0.00 0.00 39 1009.2
20220519083504 67 230 0.0 0.0 0.00 0.00 0.00 39 1009.1
20220519083005 67 230 0.0 0.0 0.00 0.00 0.00 40 1009.2
20220519082503 67 230 0.0 0.0 0.00 0.00 0.00 41 1009.1
20220519082003 67 230 0.0 0.0 0.00 0.00 0.00 41 1009.1
20220519081503 67 230 0.0 0.0 0.00 0.00 0.00 42 1009.2
20220519081004 67 230 0.0 0.0 0.00 0.00 0.00 43 1009.2
20220519080505 67 230 0.0 0.0 0.00 0.00 0.00 44 1009.3
20220519080007 67 230 0.0 0.0 0.00 0.00 0.00 44 1009.4
20220519075505 67 230 0.0 0.0 0.00 0.00 0.00 45 1009.5
20220519075005 67 230 0.0 0.0 0.00 0.00 0.00 45 1009.6
20220519074505 67 230 0.0 0.0 0.00 0.00 0.00 45 1009.6
20220519074005 68 229 0.0 0.0 0.00 0.00 0.00 45 1009.6